Eagle, AK

9:16 AM AKST on February 19, 2018 (GMT -0900)
Eagle

Weather History for PAEG - February, 2014

Change the Weather History Date:

Friday, February 14, 2014

  Actual Average (PABN) Record (PABN)
Temperature  
Mean Temperature -20 °F -  
Max Temperature -9 °F 13 °F 39 °F (1997)
Min Temperature -32 °F 3 °F -20 °F (2011)
Degree Days  
Heating Degree Days 86    
Moisture  
Dew Point -24 °F    
Average Humidity 68    
Maximum Humidity 78    
Minimum Humidity 55    
Precipitation  
Precipitation 0.00 in - - ()
Sea Level Pressure  
Sea Level Pressure 29.52 in    
Wind  
Wind Speed 3 mph (ENE)    
Max Wind Speed 8 mph    
Max Gust Speed 16 mph    
Visibility 9 miles    
Events Snow    
Averages and records for this station are not official NWS values.
T = Trace of Precipitation, MM = Missing Value Source: NWS Daily Summary

Daily Weather History Graph

Daily Weather History Graph

Search for Another Location

Airport or City:

Trip Planner

Search our weather history database for the weather conditions in past years. The results will help you decide how hot, cold, wet, or windy it might be!

Date:

Astronomy

Feb. 14, 2014 Rise Set
Actual Time 8:25 AM AKST 4:53 PM AKST
Civil Twilight 7:32 AM AKST 5:45 PM AKST
Nautical Twilight 6:35 AM AKST 6:43 PM AKST
Astronomical Twilight 5:39 AM AKST 7:40 PM AKST
Moon 5:27 PM AKST (2/14) 7:41 AM AKST (2/14)
Length of Visible Light 10h 13m
Length of Day
8h 27m
Full, 100% of the Moon is Illuminated
Feb 14
Full
Feb 14
Full
Feb 22
Last Quarter
Feb 28
New
Mar 8
First Quarter

Hourly Weather History & Observations

Time (AKST) Temp. Windchill Dew Point Humidity Pressure Visibility Wind Dir Wind Speed Gust Speed Precip Events Conditions
12:53 AM -9.0 °F -25.2 °F -20.0 °F 59% 29.49 in 2.5 mi East 8.1 mph - 0.00 in Snow Light Snow
1:01 AM -9.0 °F -23.8 °F -20.0 °F 59% 29.41 in 3.0 mi East 6.9 mph 16.1 mph 0.00 in Snow Light Snow
1:17 AM -9.0 °F -22.3 °F -20.0 °F 59% 29.41 in 3.0 mi NE 5.8 mph - 0.00 in Snow Light Snow
1:53 AM -11.0 °F - -18.0 °F 71% 29.50 in 8.0 mi Calm Calm - 0.00 in   Overcast
2:53 AM -18.0 °F - -23.1 °F 78% 29.52 in 10.0 mi Calm Calm - 0.00 in   Partly Cloudy
3:53 AM -20.0 °F - -26.0 °F 74% 29.52 in 10.0 mi Calm Calm - N/A   Mostly Cloudy
4:53 AM -17.0 °F - -23.1 °F 74% 29.52 in 10.0 mi Calm Calm - N/A   Overcast
5:53 AM -17.0 °F - -23.1 °F 74% 29.53 in 10.0 mi Calm Calm - N/A   Overcast
6:53 AM -17.0 °F -27.2 °F -24.0 °F 70% 29.53 in 10.0 mi NNW 3.5 mph - N/A   Overcast
7:53 AM -16.1 °F - -23.1 °F 71% 29.53 in 10.0 mi Calm Calm - N/A   Overcast
8:53 AM -16.1 °F - -23.1 °F 71% 29.53 in 10.0 mi Calm Calm - N/A   Overcast
9:53 AM -15.0 °F - -23.1 °F 67% 29.54 in 9.0 mi Calm Calm - N/A   Overcast
10:53 AM -14.1 °F - -22.0 °F 68% 29.54 in 7.0 mi Calm Calm - N/A   Overcast
11:53 AM -11.9 °F - -20.9 °F 64% 29.53 in 10.0 mi Calm Calm - N/A   Overcast
12:53 PM -11.0 °F - -20.9 °F 62% 29.52 in 10.0 mi Calm Calm - N/A   Overcast
1:53 PM -9.9 °F - -22.0 °F 55% 29.52 in 10.0 mi Calm Calm - N/A   Overcast
2:53 PM -11.0 °F - -20.9 °F 62% 29.51 in 10.0 mi Calm Calm - N/A   Mostly Cloudy
3:53 PM -13.0 °F - -20.9 °F 68% 29.52 in 10.0 mi Calm Calm - N/A   Overcast
4:53 PM -16.1 °F - -23.1 °F 71% 29.52 in 10.0 mi Calm Calm - N/A   Overcast
5:53 PM -23.1 °F - -29.9 °F 70% 29.55 in 10.0 mi Calm Calm - N/A   Clear
6:53 PM -27.0 °F -38.7 °F -33.0 °F 73% 29.56 in 10.0 mi SW 3.5 mph - N/A   Partly Cloudy
7:53 PM -29.0 °F - -35.0 °F 73% 29.58 in 10.0 mi Calm Calm - N/A   Clear
8:53 PM -29.9 °F - - N/A% 29.58 in 10.0 mi Calm Calm - N/A   Clear
9:53 PM -32.1 °F - - N/A% 29.57 in 10.0 mi Calm Calm - N/A   Clear
10:53 PM -29.9 °F - - N/A% 29.57 in 10.0 mi Calm Calm - N/A   Clear
11:53 PM -25.1 °F - -31.0 °F 74% 29.54 in 10.0 mi Calm Calm - N/A   Overcast